UAE708 FMMI-FSIA

Flight info

Callsign UAE708
Flight time N/A
Altitude 31000
Route GATLA UL441 NORSI DCT IMPOX
Aircraft B77W/H-SDE1E2E3FGHIJ2J3J4J5M1RWXY/LB1D1

Departure

Time 2026-04-25 07:35
Airport Ivato International Airport (FMMI)

Arrival

Time N/A
Airport Seychelles International Airport (FSIA)
Time Latitude Longitude Altitude Speed Heading
2026-04-25 07:26 -18.79974 47.47832 4180 ft 0 kts 189°
2026-04-25 07:27 -18.79962 47.47834 4175 ft 2 kts 189°
2026-04-25 07:28 -18.79947 47.47837 4174 ft 2 kts 189°
2026-04-25 07:28 -18.79932 47.47839 4174 ft 2 kts 189°
2026-04-25 07:28 -18.79918 47.47842 4174 ft 2 kts 190°
2026-04-25 07:28 -18.79903 47.47845 4174 ft 2 kts 189°
2026-04-25 07:29 -18.79888 47.47847 4173 ft 2 kts 191°
2026-04-25 07:29 -18.79876 47.47854 4173 ft 2 kts 245°
2026-04-25 07:29 -18.79873 47.47865 4174 ft 0 kts 280°
2026-04-25 07:29 -18.79874 47.47870 4174 ft 0 kts 278°
2026-04-25 07:30 -18.79873 47.47866 4174 ft 2 kts 279°
2026-04-25 07:30 -18.79862 47.47825 4173 ft 9 kts 288°
2026-04-25 07:31 -18.79837 47.47746 4172 ft 13 kts 282°
2026-04-25 07:31 -18.79816 47.47636 4173 ft 16 kts 295°
2026-04-25 07:31 -18.79711 47.47602 4173 ft 18 kts
2026-04-25 07:31 -18.79641 47.47515 4174 ft 18 kts 279°
2026-04-25 07:32 -18.79620 47.47377 4178 ft 19 kts 279°
2026-04-25 07:32 -18.79592 47.47187 4186 ft 19 kts 279°
2026-04-25 07:32 -18.79578 47.47096 4190 ft 18 kts 279°
2026-04-25 07:32 -18.79559 47.46967 4196 ft 17 kts 278°
2026-04-25 07:33 -18.79541 47.46842 4202 ft 16 kts 280°
2026-04-25 07:33 -18.79522 47.46722 4209 ft 15 kts 279°
2026-04-25 07:33 -18.79505 47.46612 4214 ft 15 kts 279°
2026-04-25 07:33 -18.79469 47.46510 4218 ft 15 kts 306°
2026-04-25 07:34 -18.79482 47.46479 4219 ft 0 kts 105°
2026-04-25 07:34 -18.79483 47.46482 4219 ft 1 kts 104°
2026-04-25 07:34 -18.79493 47.46530 4218 ft 13 kts 100°
2026-04-25 07:34 -18.79538 47.46826 4203 ft 75 kts 99°
2026-04-25 07:35 -18.79654 47.47611 4173 ft 139 kts 99°
2026-04-25 07:35 -18.79828 47.48793 4267 ft 181 kts 100°
2026-04-25 07:35 -18.80023 47.50114 4822 ft 186 kts 100°
2026-04-25 07:35 -18.80228 47.51524 5365 ft 202 kts 102°
2026-04-25 07:36 -18.80452 47.52998 5782 ft 213 kts 102°
2026-04-25 07:36 -18.80697 47.54608 6172 ft 231 kts 100°
2026-04-25 07:36 -18.80730 47.56379 6564 ft 253 kts 81°
2026-04-25 07:36 -18.80023 47.58155 6956 ft 276 kts 56°
2026-04-25 07:37 -18.78535 47.59488 7656 ft 286 kts 28°
2026-04-25 07:37 -18.76734 47.60290 8562 ft 284 kts 24°
2026-04-25 07:37 -18.74879 47.61045 9365 ft 286 kts 23°
2026-04-25 07:37 -18.72992 47.61808 10122 ft 290 kts 23°
2026-04-25 07:38 -18.71085 47.62578 10734 ft 300 kts 23°
2026-04-25 07:38 -18.69079 47.63389 11156 ft 316 kts 23°
2026-04-25 07:38 -18.66972 47.64240 11578 ft 333 kts 23°
2026-04-25 07:38 -18.64751 47.65137 12027 ft 348 kts 22°
2026-04-25 07:39 -18.62418 47.66079 12499 ft 363 kts 22°
2026-04-25 07:39 -18.60019 47.67046 13019 ft 376 kts 22°
2026-04-25 07:39 -18.57543 47.68042 13725 ft 382 kts 22°
2026-04-25 07:39 -18.55029 47.69054 14432 ft 389 kts 22°
2026-04-25 07:40 -18.52460 47.70087 15149 ft 395 kts 22°
2026-04-25 07:40 -18.49903 47.71114 15841 ft 401 kts 22°
2026-04-25 07:40 -18.47260 47.72175 16535 ft 406 kts 22°
2026-04-25 07:40 -18.44645 47.73396 17180 ft 410 kts 30°
2026-04-25 07:41 -18.42129 47.74883 17842 ft 415 kts 32°
2026-04-25 07:41 -18.39608 47.76404 18495 ft 420 kts 32°
2026-04-25 07:41 -18.37051 47.77945 19120 ft 426 kts 31°
2026-04-25 07:41 -18.34490 47.79488 19735 ft 431 kts 31°
2026-04-25 07:42 -18.31853 47.81073 20358 ft 436 kts 31°
2026-04-25 07:42 -18.29229 47.82651 20944 ft 441 kts 31°
2026-04-25 07:42 -18.26539 47.84266 21557 ft 446 kts 31°
2026-04-25 07:42 -18.23816 47.85901 22122 ft 451 kts 30°
2026-04-25 07:43 -18.21066 47.87550 22728 ft 455 kts 30°
2026-04-25 07:43 -18.18299 47.89210 23452 ft 456 kts 30°
2026-04-25 07:43 -18.15564 47.90849 24165 ft 457 kts 30°
2026-04-25 07:43 -18.12790 47.92511 24783 ft 461 kts 30°
2026-04-25 07:44 -18.09972 47.94199 25377 ft 465 kts 29°
2026-04-25 07:44 -18.07153 47.95886 26021 ft 468 kts 29°
2026-04-25 07:44 -18.04305 47.97590 26690 ft 470 kts 29°
2026-04-25 07:44 -18.01447 47.99300 27362 ft 472 kts 28°
2026-04-25 07:45 -17.98577 48.01016 27986 ft 475 kts 28°
2026-04-25 07:45 -17.95715 48.02726 28581 ft 479 kts 28°
2026-04-25 07:45 -17.92800 48.04468 29165 ft 483 kts 28°
2026-04-25 07:45 -17.89832 48.06240 29726 ft 487 kts 28°
2026-04-25 07:46 -17.86896 48.07993 30384 ft 488 kts 28°
2026-04-25 07:46 -17.83950 48.09752 30994 ft 490 kts 28°
2026-04-25 07:46 -17.80923 48.11557 31142 ft 499 kts 28°
2026-04-25 07:46 -17.77837 48.13397 31143 ft 511 kts 28°
2026-04-25 07:47 -17.74686 48.15274 31143 ft 523 kts 28°
2026-04-25 07:47 -17.71433 48.17212 31140 ft 530 kts 28°
2026-04-25 07:47 -17.65056 48.21011 31136 ft 529 kts 28°
2026-04-25 07:48 -17.58642 48.24829 31135 ft 529 kts 28°
2026-04-25 07:48 -17.52228 48.28642 31139 ft 529 kts 28°
2026-04-25 07:49 -17.45808 48.32457 31138 ft 529 kts 28°
2026-04-25 07:49 -17.39416 48.36251 31129 ft 528 kts 28°
2026-04-25 07:50 -17.32992 48.40061 31135 ft 529 kts 28°
2026-04-25 07:50 -17.26565 48.43870 31131 ft 529 kts 28°
2026-04-25 07:51 -17.20163 48.47660 31135 ft 529 kts 28°
2026-04-25 07:51 -17.13757 48.51450 31139 ft 528 kts 28°
2026-04-25 07:52 -17.07303 48.55266 31133 ft 527 kts 28°
2026-04-25 07:52 -17.00912 48.59041 31130 ft 527 kts 28°
2026-04-25 07:53 -16.94521 48.62813 31130 ft 527 kts 28°
2026-04-25 07:53 -16.88107 48.66595 31122 ft 527 kts 28°
2026-04-25 07:54 -16.81731 48.70353 31130 ft 528 kts 27°
2026-04-25 07:54 -16.75325 48.74125 31129 ft 527 kts 27°
2026-04-25 07:55 -16.68908 48.77901 31132 ft 526 kts 27°
2026-04-25 07:55 -16.62513 48.81661 31125 ft 525 kts 28°
2026-04-25 07:56 -16.56160 48.85392 31122 ft 526 kts 28°
2026-04-25 07:56 -16.49756 48.89152 31115 ft 526 kts 28°
2026-04-25 07:57 -16.43405 48.92876 31110 ft 526 kts 28°
2026-04-25 07:57 -16.36998 48.96631 31107 ft 526 kts 28°
2026-04-25 07:58 -16.30608 49.00373 31102 ft 526 kts 28°
2026-04-25 07:58 -16.24216 49.04114 31086 ft 525 kts 28°
2026-04-25 07:59 -16.17797 49.07868 31081 ft 525 kts 28°
2026-04-25 07:59 -16.11444 49.11579 31080 ft 526 kts 28°
2026-04-25 08:00 -16.05077 49.15297 31082 ft 525 kts 28°
2026-04-25 08:00 -15.98670 49.19055 31083 ft 526 kts 28°
2026-04-25 08:01 -15.92296 49.22834 31084 ft 526 kts 28°
2026-04-25 08:01 -15.85956 49.26590 31074 ft 527 kts 28°
2026-04-25 08:02 -15.79571 49.30368 31074 ft 526 kts 28°
2026-04-25 08:02 -15.73210 49.34129 31071 ft 526 kts 28°
2026-04-25 08:03 -15.66836 49.37893 31068 ft 526 kts 28°
2026-04-25 08:03 -15.60465 49.41653 31059 ft 526 kts 28°
2026-04-25 08:04 -15.54074 49.45423 31051 ft 526 kts 28°
2026-04-25 08:04 -15.47720 49.49167 31032 ft 526 kts 28°
2026-04-25 08:05 -15.41316 49.52938 31029 ft 526 kts 28°
2026-04-25 08:05 -15.34934 49.56693 31030 ft 527 kts 28°
2026-04-25 08:06 -15.28569 49.60436 31031 ft 527 kts 28°
2026-04-25 08:06 -15.22170 49.64196 31034 ft 525 kts 28°
2026-04-25 08:07 -15.15798 49.67938 31032 ft 525 kts 28°
2026-04-25 08:07 -15.09430 49.71674 31027 ft 526 kts 28°
2026-04-25 08:08 -15.03057 49.75411 31026 ft 525 kts 28°
2026-04-25 08:08 -14.96675 49.79094 31024 ft 526 kts 27°
2026-04-25 08:09 -14.90252 49.82703 31030 ft 526 kts 27°
2026-04-25 08:09 -14.83826 49.86315 31037 ft 525 kts 27°
2026-04-25 08:10 -14.77359 49.89950 31026 ft 526 kts 27°
2026-04-25 08:10 -14.70938 49.93560 31017 ft 525 kts 27°
2026-04-25 08:11 -14.64512 49.97170 30986 ft 525 kts 27°
2026-04-25 08:11 -14.58105 50.00768 30975 ft 524 kts 27°
2026-04-25 08:12 -14.51710 50.04358 30966 ft 525 kts 27°
2026-04-25 08:12 -14.45271 50.07970 30953 ft 525 kts 27°
2026-04-25 08:13 -14.38824 50.11584 30950 ft 525 kts 27°
2026-04-25 08:14 -14.29201 50.16974 30935 ft 524 kts 27°
2026-04-25 08:14 -14.22824 50.20611 30931 ft 524 kts 27°
2026-04-25 08:15 -14.16468 50.24289 30921 ft 523 kts 27°
2026-04-25 08:15 -14.10111 50.27962 30917 ft 524 kts 27°
2026-04-25 08:16 -14.03740 50.31637 30917 ft 523 kts 27°
2026-04-25 08:16 -13.97368 50.35310 30915 ft 523 kts 27°
2026-04-25 08:17 -13.91000 50.38977 30911 ft 522 kts 27°
2026-04-25 08:17 -13.84655 50.42628 30913 ft 522 kts 27°
2026-04-25 08:18 -13.78290 50.46288 30913 ft 522 kts 27°
2026-04-25 08:18 -13.71923 50.49947 30913 ft 522 kts 27°
2026-04-25 08:19 -13.65553 50.53605 30913 ft 522 kts 27°
2026-04-25 08:19 -13.59229 50.57233 30910 ft 522 kts 27°
2026-04-25 08:20 -13.52843 50.60894 30909 ft 522 kts 27°
2026-04-25 08:20 -13.46505 50.64524 30909 ft 522 kts 27°
2026-04-25 08:21 -13.40128 50.68174 30907 ft 523 kts 27°
2026-04-25 08:21 -13.33783 50.71804 30906 ft 522 kts 27°
2026-04-25 08:22 -13.27401 50.75453 30907 ft 522 kts 27°
2026-04-25 08:22 -13.21084 50.79063 30907 ft 522 kts 27°
2026-04-25 08:23 -13.14721 50.82696 30908 ft 522 kts 27°
2026-04-25 08:23 -13.08351 50.86331 30907 ft 521 kts 27°
2026-04-25 08:24 -13.02018 50.89943 30905 ft 520 kts 27°
2026-04-25 08:24 -12.95644 50.93577 30895 ft 522 kts 27°
2026-04-25 08:25 -12.89322 50.97179 30889 ft 521 kts 27°
2026-04-25 08:25 -12.82974 51.00793 30890 ft 521 kts 27°
2026-04-25 08:26 -12.76627 51.04404 30890 ft 521 kts 27°
2026-04-25 08:26 -12.70251 51.08031 30890 ft 522 kts 27°
2026-04-25 08:27 -12.63916 51.11631 30890 ft 522 kts 27°
2026-04-25 08:27 -12.57557 51.15243 30890 ft 522 kts 27°
2026-04-25 08:28 -12.51172 51.18868 30890 ft 523 kts 27°
2026-04-25 08:28 -12.44800 51.22484 30890 ft 522 kts 27°
2026-04-25 08:29 -12.38414 51.26105 30890 ft 523 kts 27°
2026-04-25 08:29 -12.32051 51.29711 30890 ft 522 kts 27°
2026-04-25 08:30 -12.25660 51.33332 30890 ft 523 kts 27°
2026-04-25 08:30 -12.19312 51.36926 30887 ft 523 kts 27°
2026-04-25 08:31 -12.12944 51.40529 30883 ft 522 kts 27°
2026-04-25 08:31 -12.06568 51.44136 30882 ft 523 kts 27°
2026-04-25 08:32 -12.00179 51.47751 30883 ft 523 kts 27°
2026-04-25 08:32 -11.93810 51.51353 30879 ft 524 kts 27°
2026-04-25 08:33 -11.87403 51.54973 30879 ft 524 kts 27°
2026-04-25 08:33 -11.81037 51.58569 30877 ft 523 kts 27°
2026-04-25 08:34 -11.74649 51.62174 30878 ft 523 kts 27°
2026-04-25 08:34 -11.68264 51.65777 30873 ft 524 kts 27°
2026-04-25 08:35 -11.61903 51.69368 30872 ft 524 kts 27°
2026-04-25 08:35 -11.55489 51.72990 30871 ft 524 kts 27°
2026-04-25 08:36 -11.49089 51.76602 30871 ft 524 kts 27°
2026-04-25 08:36 -11.42687 51.80212 30876 ft 524 kts 27°
2026-04-25 08:37 -11.36301 51.83813 30879 ft 524 kts 27°
2026-04-25 08:37 -11.29945 51.87394 30883 ft 523 kts 27°
2026-04-25 08:38 -11.23558 51.90990 30888 ft 523 kts 27°
2026-04-25 08:38 -11.17161 51.94591 30887 ft 524 kts 27°
2026-04-25 08:39 -11.10758 51.98193 30887 ft 524 kts 27°
2026-04-25 08:39 -11.04389 52.01774 30888 ft 524 kts 27°
2026-04-25 08:40 -10.97990 52.05370 30889 ft 524 kts 27°
2026-04-25 08:40 -10.91606 52.08956 30879 ft 523 kts 27°
2026-04-25 08:41 -10.85216 52.12544 30886 ft 523 kts 27°
2026-04-25 08:41 -10.78828 52.16128 30883 ft 524 kts 27°
2026-04-25 08:42 -10.72440 52.19711 30879 ft 524 kts 27°
2026-04-25 08:42 -10.66027 52.23307 30873 ft 525 kts 27°
2026-04-25 08:43 -10.59643 52.26884 30866 ft 524 kts 27°
2026-04-25 08:43 -10.53246 52.30466 30869 ft 525 kts 27°
2026-04-25 08:44 -10.46828 52.34059 30867 ft 524 kts 27°
2026-04-25 08:44 -10.40414 52.37648 30868 ft 524 kts 27°
2026-04-25 08:45 -10.34004 52.41233 30869 ft 525 kts 27°
2026-04-25 08:45 -10.27606 52.44809 30868 ft 525 kts 27°
2026-04-25 08:46 -10.21157 52.48413 30871 ft 525 kts 27°
2026-04-25 08:46 -10.14730 52.52002 30867 ft 526 kts 27°
2026-04-25 08:47 -10.08335 52.55572 30868 ft 526 kts 27°
2026-04-25 08:47 -10.01908 52.59158 30869 ft 525 kts 27°
2026-04-25 08:48 -9.95507 52.62729 30870 ft 526 kts 27°
2026-04-25 08:48 -9.89076 52.66317 30863 ft 525 kts 26°
2026-04-25 08:49 -9.82665 52.69892 30867 ft 525 kts 26°
2026-04-25 08:49 -9.76257 52.73463 30867 ft 525 kts 27°
2026-04-25 08:50 -9.69805 52.77058 30865 ft 525 kts 26°
2026-04-25 08:50 -9.63411 52.80618 30866 ft 525 kts 26°
2026-04-25 08:51 -9.57000 52.84187 30865 ft 525 kts 26°
2026-04-25 08:51 -9.50591 52.87752 30858 ft 524 kts 27°
2026-04-25 08:52 -9.44156 52.91331 30856 ft 525 kts 27°
2026-04-25 08:52 -9.37765 52.94884 30851 ft 524 kts 27°
2026-04-25 08:53 -9.31338 52.98455 30847 ft 524 kts 26°
2026-04-25 08:53 -9.24913 53.02024 30845 ft 524 kts 26°
2026-04-25 08:54 -9.18505 53.05582 30850 ft 525 kts 26°
2026-04-25 08:54 -9.12117 53.09127 30847 ft 524 kts 26°
2026-04-25 08:55 -9.05708 53.12682 30849 ft 524 kts 27°
2026-04-25 08:55 -8.99296 53.16237 30846 ft 523 kts 27°
2026-04-25 08:56 -8.92901 53.19782 30849 ft 523 kts 27°
2026-04-25 08:56 -8.86513 53.23321 30850 ft 523 kts 27°
2026-04-25 08:57 -8.80133 53.26855 30851 ft 523 kts 26°
2026-04-25 08:57 -8.73715 53.30408 30851 ft 523 kts 27°
2026-04-25 08:58 -8.67343 53.33934 30856 ft 523 kts 26°
2026-04-25 08:58 -8.60910 53.37493 30865 ft 523 kts 26°
2026-04-25 08:59 -8.54514 53.41030 30872 ft 523 kts 26°
2026-04-25 08:59 -8.48102 53.44574 30871 ft 524 kts 26°
2026-04-25 09:00 -8.41699 53.48112 30871 ft 523 kts 26°
2026-04-25 09:00 -8.35275 53.51660 30869 ft 523 kts 26°
2026-04-25 09:01 -8.28902 53.55179 30872 ft 523 kts 26°
2026-04-25 09:01 -8.22471 53.58728 30874 ft 522 kts 26°
2026-04-25 09:02 -8.16121 53.62231 30867 ft 522 kts 26°
2026-04-25 09:02 -8.09693 53.65776 30856 ft 523 kts 26°
2026-04-25 09:03 -8.03278 53.69313 30855 ft 524 kts 26°
2026-04-25 09:03 -7.96880 53.72839 30860 ft 523 kts 26°
2026-04-25 09:04 -7.90475 53.76367 30866 ft 524 kts 26°
2026-04-25 09:04 -7.84095 53.79881 30868 ft 523 kts 26°
2026-04-25 09:05 -7.77658 53.83425 30868 ft 522 kts 26°
2026-04-25 09:05 -7.71288 53.86930 30868 ft 522 kts 26°
2026-04-25 09:06 -7.64882 53.90454 30868 ft 521 kts 26°
2026-04-25 09:06 -7.58490 53.93969 30868 ft 522 kts 26°
2026-04-25 09:07 -7.52080 53.97493 30865 ft 521 kts 26°
2026-04-25 09:07 -7.45728 54.00984 30854 ft 521 kts 26°
2026-04-25 09:08 -7.39321 54.04504 30848 ft 521 kts 26°
2026-04-25 09:08 -7.32952 54.08002 30848 ft 521 kts 26°
2026-04-25 09:09 -7.26565 54.11509 30848 ft 521 kts 26°
2026-04-25 09:09 -7.20158 54.14999 30848 ft 521 kts 26°
2026-04-25 09:10 -7.13778 54.18455 30847 ft 520 kts 26°
2026-04-25 09:10 -7.07372 54.21925 30847 ft 522 kts 26°
2026-04-25 09:11 -6.97722 54.27152 30848 ft 521 kts 26°
2026-04-25 09:11 -6.91316 54.30621 30848 ft 522 kts 26°
2026-04-25 09:12 -6.84922 54.34084 30857 ft 521 kts 26°
2026-04-25 09:12 -6.78548 54.37533 30859 ft 521 kts 26°
2026-04-25 09:13 -6.72147 54.40997 30852 ft 522 kts 26°
2026-04-25 09:13 -6.65734 54.44466 30841 ft 521 kts 26°
2026-04-25 09:14 -6.59348 54.47920 30838 ft 521 kts 26°
2026-04-25 09:14 -6.52959 54.51374 30839 ft 521 kts 26°
2026-04-25 09:15 -6.46540 54.54843 30841 ft 520 kts 26°
2026-04-25 09:15 -6.40162 54.58289 30842 ft 519 kts 26°